Measat 3

operational
NORAD ID: 29648 Int'l Des: 2006-056 Owner: MEAS Country: MY
HEOCIRCULAR

About Measat 3

Description loading...

Live Position

Loading 3D Globe...

Upcoming Passes

Altitude History

Altitude vs Time

uPlot chart will show altitude changes over time

Two-Line Element Set

1 29648U 06056A 26063.27753390 -.00000043 00000-0 00000+0 0 9996
2 29648 4.4593 77.4676 0006078 227.6074 138.4222 0.99752996 49340
Epoch: Mar 4, 2026 • Age: 23 hours

Current Status

Altitude 35910.0 km
Velocity 3.07 km/s
Sub-Earth Point -4.32°S, 179.74°W
Launch Date Dec 11, 2006
Age 19.2 years
Type other

Technical Details

Classification Payload
Mass 4765.00 kg
Dry Mass 2000.00 kg
Total Mass 4765.00 kg
Length 7.40 m
Diameter 3.80 m
Span 26.00 m
Shape Box + 2 Pan + Dish
Manufacturer BOES
Bus Type HS-601HP
Phase Status In Orbit
Owner/State MEAS/MY

Large Constellations

Loading constellations...